DECAYED

COSMOS 2251 DEB, 34010 (Decayed)

Orbit data source: Space-Track

COSMOS 2251 DEB, 34010 was space debris in LEO originally from a launch on Wed, 16 Jun 1993 UTC launched from the Plesetsk Missile And Space Complex (PKMTR). The debris from Iridium 33, an American commercial communications satellite, has been tracked extensively since its accidental collision with the defunct Russian satellite Cosmos 2251 in 2009. This event, occurring at high speed in low Earth orbit (LEO), generated thousands of pieces of space debris, significantly increasing the risk of further collisions. The Iridium 33 debris cloud has impacted space traffic management and orbital debris mitigation strategies, making it a subject of ongoing study in space situational awareness.

Not visible in the next 10 days
Identifier
34010, 1993-036GV
Orbit
Decayed
Country
Flag of CISCIS
Related business
Manufacturer
Unknown
Mission
Decayed spacecraft
Bus & Motor
Unknown
Mass
Unknown
Launch date (UTC)
1993-06-16 (33 years ago)
Launch vehicle
Unknown
Launch site
Plesetsk Missile And Space Complex (PKMTR)
Object type
Payload
Rocket body
Debris
Shape & HBR
Unknown shape, 0.1 m
Radar Cross Section
Small (<0.1 m²)

Expand to show TLE details & history
Last TLE update: 1 month ago

TLE from 1 month ago
0 COSMOS 2251 DEB
1 34010U 93036GV  26105.77409047  .04115418  31937-1  67068-2 0  9998
2 34010  73.9715  15.0023 0019458 195.7417 164.3224 16.07045664911938
Epoch: 2026-04-15T18:34Z
TLE epoch observation values (Epoch: 2026-04-15T18:34:41.416Z)
Latitude
0.00004°
Longitude
-107.60142°
Altitude
270.202 km
Speed
7.738 km/s
True Right ascension
01h 00m 00s
True Declination
0° 00' 00"
Sunlit
Object was in daylight at epoch
Visualization orbit readout
Latitude
Unknown
Longitude
Unknown
Altitude
Unknown
Speed
Unknown
Apparent Right ascension
Unknown
Apparent Declination
Unknown
Sunlit
N/A
Visualization observer readout
Local Sidereal Time
18:56:59
Azimuth
Unknown
Elevation
Unknown
Doppler factor
Unknown
Orbital elements
Apogee altitude
265.306 km
Perigee altitude
239.503 km
Semi-major axis
6,630.541 km
Eccentricity
0.00195
Inclination
73.9715°
RAAN
15.0023°
Arg. of periapsis
195.7417°
True anomaly
164.38251°
Mean anomaly
164.3224°
Eccentric anomaly
164.35247°
Mean motion
4.01994 °/min
Orbital period
89.55 mins
BSTAR
0.0067068
Loading maneuver chart data...
Computing Atmospheric mass density...

Documentation

Showing up to 5 results
|